[[{"header":{"parameterUnit":"m.s-1","parameterCategory":1,"la1":30.2991,"la2":30.254,"lo1":-89.0895,"lo2":-89.0444,"dy":0.0017,"dx":0.0017,"nx":28,"ny":28,"refTime":"2023-09-10T09:00:00:Z","depth":0,"parameterNumber":2,"parameterNumberName":"U-component_of_WINDS"},"data":[0,0,0,0,0,0,0,0,0,0,0,0,0,0,0,0,0,0,0,0,0,0,0,0,0,0,0,0,0,0,0,0,0,0,0,0,0,0,0,0,0,0,0,0,0,0,0,0,0,0,0,0,0,0,0,0,0,0,0.2363,0.2364,0,0.2416,0.2416,0.2417,0.2469,0.247,0.2471,0.2471,0.2526,0.2526,0.2527,0,0,0,0,0,0,0,0,0,0,0,0,0,0.231,0.231,0.2363,0.2364,0.2365,0.2416,0.2416,0.2417,0.2469,0.247,0.2471,0.2472,0.2525,0.2526,0.2527,0,0,0,0,0,0,0,0,0,0,0,0,0,0.2344,0.231,0.2363,0.2397,0.24,0.2415,0.2416,0.2417,0.2469,0.247,0.2471,0.2472,0.2525,0.2526,0.2527,0.2514,0,0,0.2531,0.2532,0,0,0,0,0,0,0,0,0.2342,0.2346,0.2391,0.2394,0.2398,0.2437,0.2417,0.245,0.2469,0.2443,0.2471,0.2472,0.2495,0.2499,0.2507,0.2517,0.2519,0.2531,0.2532,0.2532,0.2533,0,0,0,0,0,0,0,0.234,0.2344,0.2384,0.2392,0.2396,0.241,0.2416,0.2424,0.2463,0.2445,0.2449,0.2455,0.2498,0.2505,0.2508,0.252,0.2531,0.2532,0.2533,0.2533,0.2522,0.2521,0,0,0,0,0,0,0.2332,0.2342,0.2382,0.2386,0.2372,0.241,0.2417,0.2424,0.2463,0.247,0.2454,0.2457,0.2503,0.2507,0.251,0.2497,0.2532,0.2534,0.2534,0.2523,0.2522,0.2521,0,0,0,0,0,0,0.2331,0.2335,0.238,0.2365,0.2372,0.2409,0.2417,0.2424,0.2432,0.2469,0.2476,0.2454,0.2504,0.2509,0.2513,0.25,0.2534,0.2535,0.2524,0.2523,0.2521,0.247,0,0,0,0,0,0,0.2329,0.2335,0.2329,0.2364,0.2372,0.2381,0.2416,0.2424,0.2434,0.2438,0.2472,0.2478,0.2505,0.2511,0.2514,0.2502,0.2536,0.2525,0.2523,0.2522,0.2473,0.2467,0.2462,0,0,0,0,0,0.2327,0.2313,0.2329,0.2333,0.2367,0.238,0.2385,0.2416,0.2432,0.2428,0.2452,0.2477,0.2501,0.2511,0.2515,0.2503,0.2526,0.2524,0.2522,0.2476,0.2468,0.2462,0,0,0,0,0,0,0.2275,0.2318,0.2336,0.2333,0.2353,0.2389,0.2384,0.2407,0.2422,0.2426,0.2464,0.2471,0.2471,0.2488,0.2498,0.2492,0.2517,0.2516,0.2481,0.2474,0.2469,0.2464,0.2537,0,0,0,0,0,0.2264,0.2271,0.2308,0.2302,0.2311,0.2345,0.2353,0.2375,0.2397,0.2405,0.243,0.245,0.2462,0.247,0.2483,0.2477,0.2484,0.2471,0.2465,0.246,0.2458,0.2456,0.245,0.2513,0.2513,0.2513,0,0,0.2239,0.2264,0.2266,0.2292,0.231,0.2317,0.2352,0.2358,0.2363,0.2406,0.2411,0.243,0.2456,0.2454,0.2455,0.2468,0.2442,0.2457,0.2453,0.2453,0.2453,0.2447,0.2441,0.2511,0.2512,0.2512,0,0,0.2198,0.2218,0.2214,0.2232,0.2258,0.2282,0.2281,0.2314,0.2328,0.2334,0.2366,0.2374,0.2394,0.2411,0.2422,0.2389,0.2412,0.2392,0.2362,0.2359,0.2354,0.235,0.2337,0.2332,0.239,0.239,0.239,0,0.2165,0.2176,0.221,0.2213,0.2224,0.2264,0.2261,0.2276,0.2306,0.2312,0.2327,0.2353,0.2374,0.2377,0.2368,0.2377,0.2377,0.2388,0.2352,0.2348,0.2345,0.2333,0.2328,0.2387,0.2388,0.2388,0.2388,0,0.2133,0.214,0.2135,0.2162,0.2172,0.2172,0.2207,0.2213,0.2235,0.2257,0.2263,0.2289,0.2308,0.2311,0.2332,0.2317,0.2324,0.2345,0.2371,0.2335,0.2325,0.2321,0.2383,0.2384,0.2385,0.2386,0,0,0.2059,0.2106,0.2103,0.2116,0.2149,0.2155,0.2158,0.2177,0.2181,0.2201,0.2203,0.222,0.224,0.2253,0.2277,0.2275,0.2246,0.2296,0.2297,0.2285,0.223,0.2213,0.2207,0.2263,0.2262,0.2261,0.2228,0,0.2022,0.2029,0.206,0.2057,0.2064,0.2103,0.2105,0.2126,0.2147,0.2157,0.2181,0.2191,0.2217,0.2225,0.2225,0.2249,0.2235,0.2252,0.2265,0.2265,0.2256,0.2202,0.2184,0.215,0.2224,0.2223,0.2223,0,0.198,0.1997,0.1994,0.2027,0.2032,0.2033,0.2053,0.2062,0.2086,0.2102,0.2116,0.2143,0.2149,0.2174,0.2182,0.2193,0.22,0.2213,0.2213,0.2214,0.224,0.22,0.214,0.2135,0.2217,0.2217,0.2218,0,0.1925,0.1947,0.1949,0.1959,0.1997,0.1997,0.2014,0.2039,0.2049,0.2067,0.2073,0.2091,0.2101,0.2115,0.2146,0.2162,0.215,0.2178,0.2163,0.2162,0.2157,0.2157,0.2096,0.2164,0.2164,0.2165,0.2165,0,0.188,0.1877,0.1924,0.1925,0.1923,0.196,0.1956,0.1977,0.1999,0.2005,0.204,0.2045,0.2087,0.2096,0.2121,0.2124,0.2128,0.2141,0.2147,0.2137,0.2135,0.2141,0.2143,0.2163,0.2164,0.2164,0.2164,0,0.1817,0.1849,0.1853,0.189,0.1899,0.1895,0.1927,0.193,0.1954,0.196,0.1964,0.2001,0.2014,0.2048,0.207,0.2087,0.2082,0.2094,0.2073,0.2077,0.2059,0.206,0.1999,0.1993,0.2066,0.2065,0.2065,0,0.1785,0.1784,0.182,0.1826,0.1841,0.1851,0.1861,0.1897,0.1906,0.1935,0.1933,0.1949,0.1964,0.1983,0.2012,0.203,0.2042,0.202,0.2045,0.2034,0.204,0.2039,0.2039,0.2014,0.2013,0.2012,0.2011,0,0.1725,0.1741,0.1754,0.1772,0.1782,0.1799,0.1817,0.182,0.1862,0.187,0.1883,0.1895,0.1917,0.1932,0.1954,0.1972,0.1998,0.2004,0.2001,0.1989,0.1976,0.1981,0.2056,0.2004,0.2005,0.2005,0.2006,0.2006,0.1676,0.1676,0.1702,0.1715,0.1733,0.1749,0.1753,0.1778,0.179,0.181,0.1832,0.1843,0.1869,0.1901,0.1917,0.1926,0.194,0.1936,0.1935,0.1933,0.1928,0.1976,0.1931,0.1931,0.1931,0.1931,0.1932,0,0.1617,0.1635,0.1647,0.1671,0.1682,0.1706,0.1728,0.1735,0.1744,0.1766,0.178,0.1795,0.1811,0.1842,0.186,0.1862,0.1874,0.1865,0.1864,0.1868,0.1915,0.1915,0.1854,0.1854,0.1855,0.1855,0.1855,0.1855,0.1587,0.1588,0.1608,0.1619,0.1638,0.1649,0.1659,0.1674,0.1692,0.1708,0.1721,0.1741,0.1766,0.1787,0.1802,0.1811,0.1815,0.1802,0.1814,0.1857,0.1865,0.1871,0.1871,0.1803,0.1803,0.1766,0.1766,0.1765]},{"header":{"parameterUnit":"m.s-1","parameterCategory":1,"la1":30.2991,"la2":30.254,"lo1":-89.0895,"lo2":-89.0444,"dy":0.0017,"dx":0.0017,"nx":28,"ny":28,"refTime":"2023-09-10T09:00:00:Z","depth":0,"parameterNumber":3,"parameterNumberName":"V-component_of_WINDS"},"data":[0,0,0,0,0,0,0,0,0,0,0,0,0,0,0,0,0,0,0,0,0,0,0,0,0,0,0,0,0,0,0,0,0,0,0,0,0,0,0,0,0,0,0,0,0,0,0,0,0,0,0,0,0,0,0,0,0,0,-0.8686,-0.8685,0,-0.8655,-0.8654,-0.8654,-0.8643,-0.8643,-0.8643,-0.8643,-0.8611,-0.861,-0.8609,0,0,0,0,0,0,0,0,0,0,0,0,0,-0.8737,-0.8736,-0.8686,-0.8685,-0.8685,-0.8655,-0.8654,-0.8654,-0.8643,-0.8643,-0.8643,-0.8643,-0.8611,-0.861,-0.8609,0,0,0,0,0,0,0,0,0,0,0,0,0,-0.8711,-0.8736,-0.8686,-0.8676,-0.8675,-0.8655,-0.8654,-0.8654,-0.8643,-0.8643,-0.8643,-0.8643,-0.8611,-0.861,-0.8608,-0.8596,0,0,-0.8604,-0.8603,0,0,0,0,0,0,0,0,-0.8713,-0.8709,-0.8678,-0.8676,-0.8675,-0.8653,-0.866,-0.8634,-0.8643,-0.8655,-0.8643,-0.8644,-0.8624,-0.8622,-0.8616,-0.8594,-0.8593,-0.8604,-0.8603,-0.8602,-0.8602,0,0,0,0,0,0,0,-0.8715,-0.8711,-0.8673,-0.8677,-0.8676,-0.8674,-0.867,-0.8655,-0.8639,-0.8654,-0.8653,-0.865,-0.8624,-0.8617,-0.8615,-0.8592,-0.8604,-0.8603,-0.8602,-0.8601,-0.8563,-0.8563,0,0,0,0,0,0,-0.8718,-0.8712,-0.8674,-0.8672,-0.8695,-0.8672,-0.8669,-0.866,-0.8639,-0.8636,-0.8649,-0.8649,-0.862,-0.8617,-0.8614,-0.86,-0.8602,-0.8601,-0.86,-0.8563,-0.8563,-0.8563,0,0,0,0,0,0,-0.8719,-0.8715,-0.8675,-0.8692,-0.8687,-0.8671,-0.8662,-0.8659,-0.8652,-0.8636,-0.8633,-0.8646,-0.862,-0.8616,-0.8601,-0.8599,-0.86,-0.8599,-0.8563,-0.8563,-0.8563,-0.8571,0,0,0,0,0,0,-0.8721,-0.8715,-0.8709,-0.8692,-0.8686,-0.8663,-0.8661,-0.8658,-0.865,-0.8649,-0.8631,-0.8629,-0.8619,-0.8604,-0.86,-0.8597,-0.8598,-0.8564,-0.8563,-0.8563,-0.8571,-0.8571,-0.8571,0,0,0,0,0,-0.8722,-0.8712,-0.8709,-0.8705,-0.8679,-0.8663,-0.866,-0.8649,-0.865,-0.8645,-0.8635,-0.8629,-0.86,-0.8602,-0.8598,-0.8594,-0.8564,-0.8563,-0.8563,-0.8571,-0.8571,-0.8571,0,0,0,0,0,0,-0.8728,-0.8709,-0.8706,-0.8689,-0.8678,-0.8661,-0.8654,-0.8649,-0.8637,-0.8637,-0.8625,-0.8621,-0.8608,-0.86,-0.8603,-0.8583,-0.8581,-0.858,-0.8589,-0.8589,-0.8589,-0.8592,-0.8597,0,0,0,0,0,-0.8727,-0.8716,-0.87,-0.8687,-0.8682,-0.8669,-0.8662,-0.8655,-0.8643,-0.8638,-0.8626,-0.8615,-0.8603,-0.8595,-0.8583,-0.857,-0.8567,-0.8566,-0.8566,-0.8566,-0.8565,-0.8561,-0.8561,-0.8562,-0.8562,-0.8562,0,0,-0.8726,-0.8714,-0.8707,-0.8688,-0.8678,-0.8668,-0.8665,-0.8653,-0.8645,-0.8636,-0.8622,-0.8614,-0.86,-0.8587,-0.8581,-0.8579,-0.8565,-0.8566,-0.8566,-0.8565,-0.856,-0.856,-0.856,-0.8562,-0.8562,-0.8562,0,0,-0.8718,-0.8707,-0.8696,-0.8688,-0.8674,-0.8666,-0.8664,-0.8648,-0.8643,-0.8629,-0.8623,-0.8614,-0.8594,-0.8585,-0.8578,-0.8571,-0.8567,-0.8568,-0.8569,-0.8564,-0.8564,-0.8564,-0.8564,-0.8564,-0.8567,-0.8567,-0.8567,0,-0.8717,-0.8701,-0.8691,-0.8681,-0.8674,-0.8667,-0.8657,-0.8649,-0.8632,-0.8627,-0.8626,-0.8603,-0.8593,-0.8579,-0.8578,-0.8572,-0.857,-0.857,-0.8565,-0.8565,-0.8565,-0.8564,-0.8564,-0.8567,-0.8567,-0.8567,-0.8567,0,-0.8702,-0.8691,-0.8685,-0.867,-0.8662,-0.8652,-0.8643,-0.8636,-0.8631,-0.8624,-0.8612,-0.86,-0.8587,-0.8584,-0.8578,-0.857,-0.857,-0.8567,-0.8566,-0.8565,-0.8565,-0.8564,-0.8568,-0.8568,-0.8568,-0.8568,0,0,-0.8694,-0.8678,-0.8676,-0.8671,-0.8657,-0.8648,-0.8639,-0.8628,-0.8623,-0.8613,-0.8606,-0.859,-0.8589,-0.8581,-0.8575,-0.8571,-0.857,-0.8569,-0.8568,-0.8571,-0.8563,-0.8566,-0.8566,-0.8567,-0.8566,-0.8566,-0.8565,0,-0.8686,-0.8669,-0.8663,-0.865,-0.8641,-0.8636,-0.8628,-0.862,-0.8613,-0.8606,-0.8599,-0.8589,-0.8586,-0.8582,-0.8578,-0.8571,-0.8568,-0.857,-0.8561,-0.8561,-0.8566,-0.8565,-0.8567,-0.8567,-0.8564,-0.8564,-0.8564,0,-0.8673,-0.8665,-0.8651,-0.8642,-0.8638,-0.8631,-0.8622,-0.8614,-0.8605,-0.8601,-0.8595,-0.8589,-0.8581,-0.8581,-0.857,-0.8572,-0.8568,-0.8565,-0.8564,-0.8563,-0.8563,-0.8566,-0.8566,-0.8566,-0.8563,-0.8564,-0.8564,0,-0.8672,-0.8657,-0.8648,-0.8643,-0.8631,-0.8627,-0.8622,-0.8613,-0.8608,-0.86,-0.8597,-0.8588,-0.8583,-0.8577,-0.857,-0.857,-0.8561,-0.8559,-0.8559,-0.8559,-0.8557,-0.8557,-0.8558,-0.8553,-0.8553,-0.8553,-0.8553,0,-0.8663,-0.8656,-0.8647,-0.8642,-0.8634,-0.8627,-0.862,-0.8614,-0.8608,-0.8602,-0.8596,-0.8591,-0.8582,-0.8576,-0.8571,-0.8564,-0.8562,-0.8559,-0.8558,-0.856,-0.8561,-0.8558,-0.8558,-0.8553,-0.8553,-0.8553,-0.8553,0,-0.866,-0.8654,-0.8644,-0.8635,-0.8632,-0.8627,-0.862,-0.8615,-0.861,-0.8603,-0.8601,-0.8593,-0.8586,-0.8579,-0.8568,-0.8565,-0.856,-0.8557,-0.8563,-0.8563,-0.8563,-0.8564,-0.8562,-0.8562,-0.8557,-0.8557,-0.8557,0,-0.8656,-0.865,-0.8641,-0.8638,-0.8633,-0.8627,-0.8622,-0.8616,-0.8612,-0.8603,-0.86,-0.8593,-0.8587,-0.8577,-0.857,-0.8563,-0.8562,-0.8562,-0.856,-0.8564,-0.8564,-0.8565,-0.8565,-0.8562,-0.8562,-0.8562,-0.8562,0,-0.8649,-0.8647,-0.8641,-0.8635,-0.863,-0.8625,-0.8619,-0.8616,-0.8609,-0.8605,-0.8599,-0.8594,-0.8586,-0.858,-0.8573,-0.8568,-0.8565,-0.8563,-0.8563,-0.8565,-0.857,-0.8569,-0.8565,-0.8563,-0.8563,-0.8563,-0.8563,-0.8563,-0.8646,-0.8642,-0.8637,-0.8631,-0.8627,-0.8622,-0.8618,-0.8614,-0.8609,-0.8602,-0.8599,-0.8593,-0.8587,-0.8578,-0.8574,-0.857,-0.8569,-0.8568,-0.8568,-0.8568,-0.857,-0.857,-0.8568,-0.8568,-0.8568,-0.8568,-0.8568,0,-0.8641,-0.8638,-0.8633,-0.8626,-0.8623,-0.8621,-0.8615,-0.8612,-0.8608,-0.8603,-0.8598,-0.8592,-0.8587,-0.8581,-0.8576,-0.8574,-0.8573,-0.8573,-0.8574,-0.8573,-0.857,-0.8571,-0.8575,-0.8575,-0.8575,-0.8575,-0.8575,-0.8575,-0.8638,-0.8633,-0.8631,-0.8624,-0.862,-0.8616,-0.8613,-0.861,-0.8606,-0.8601,-0.8597,-0.8594,-0.8589,-0.8584,-0.858,-0.8578,-0.8577,-0.8579,-0.8577,-0.8574,-0.8573,-0.8573,-0.8574,-0.8578,-0.8578,-0.8581,-0.8581,-0.8581]}]]